Decatur, AL

4:11 PM CST on December 10, 2019 (GMT -0600)
Pryor Regional

Weather History for KDCU - November, 2019

Change the Weather History Date:

Tuesday, November 12, 2019

  Actual Average Record
Temperature  
Mean Temperature 26 °F -  
Max Temperature 34 °F 61 °F 79 °F (1989)
Min Temperature 19 °F 38 °F 22 °F (1950)
Degree Days  
Heating Degree Days 38    
Moisture  
Dew Point 21 °F    
Average Humidity 75    
Maximum Humidity 96    
Minimum Humidity 45    
Precipitation  
Precipitation 0.02 in - - ()
Sea Level Pressure  
Sea Level Pressure 30.33 in    
Wind  
Wind Speed 16 mph ()    
Max Wind Speed 23 mph    
Max Gust Speed 32 mph    
Visibility 9.1 miles    
Events Rain    
Averages and records for this station are not official NWS values.
T = Trace of Precipitation, MM = Missing Value Source: Averaged Metar Reports

Daily Weather History Graph

Daily Weather History Graph

Search for Another Location

Airport or City:

Astronomy

Nov. 12, 2019 Rise Set
Actual Time 6:18 AM CST 4:44 PM CST
Civil Twilight 5:51 AM CST 5:11 PM CST
Nautical Twilight 5:21 AM CST 5:41 PM CST
Astronomical Twilight 4:51 AM CST 6:11 PM CST
Moon 5:10 PM CST (11/12) 6:11 AM CST (11/12)
Length of Visible Light 11h 19m
Length of Day
10h 26m
Full, 100% of the Moon is Illuminated
Nov 12
Full
Nov 19
Last Quarter
Nov 26
New
Dec 4
First Quarter
Dec 11
Full

Hourly Weather History & Observations

Time (CST) Temp. Windchill Dew Point Humidity Pressure Visibility Wind Dir Wind Speed Gust Speed Precip Events Conditions
12:38 AM 34.0 °F 22.7 °F 32.0 °F 92% 30.16 in 10.0 mi North 19.6 mph 27.6 mph 0.05 in Rain Light Rain
1:35 AM 32.0 °F 20.1 °F 30.0 °F 92% 30.19 in 7.0 mi North 19.6 mph - 0.01 in   Overcast
1:53 AM 32.0 °F 20.8 °F 30.0 °F 92% 30.19 in 5.0 mi NNW 17.3 mph - 0.02 in Rain Light Freezing Rain
2:00 AM 32.0 °F 20.1 °F 30.0 °F 92% 30.19 in 4.0 mi NNW 19.6 mph - 0.00 in Rain Light Freezing Rain
2:14 AM 30.9 °F 19.8 °F 30.0 °F 96% 30.20 in 4.0 mi NNW 16.1 mph - N/A   Overcast
2:21 AM 30.9 °F 17.8 °F 28.9 °F 92% 30.20 in 5.0 mi North 23.0 mph 32.2 mph N/A   Overcast
2:28 AM 30.9 °F 18.4 °F 28.9 °F 92% 30.20 in 5.0 mi NNW 20.7 mph 28.8 mph N/A   Overcast
2:51 AM 30.2 °F 18.9 °F 28.4 °F 93% 30.20 in 9.0 mi North 16.1 mph 25.3 mph N/A Rain Light Freezing Rain
2:53 AM 30.9 °F 18.4 °F 28.0 °F 89% 30.21 in 9.0 mi NNW 20.7 mph 26.5 mph N/A Rain Light Freezing Rain
3:25 AM 30.0 °F 17.9 °F 27.0 °F 88% 30.22 in 10.0 mi North 18.4 mph 27.6 mph N/A   Overcast
3:53 AM 28.9 °F 16.1 °F 27.0 °F 92% 30.24 in 10.0 mi NNW 19.6 mph 25.3 mph N/A   Overcast
4:53 AM 28.0 °F 14.9 °F 25.0 °F 88% 30.28 in 10.0 mi North 19.6 mph 31.1 mph N/A   Overcast
5:53 AM 28.0 °F 15.3 °F 24.1 °F 85% 30.30 in 10.0 mi North 18.4 mph 29.9 mph N/A   Overcast
6:09 AM 27.0 °F 12.5 °F 23.0 °F 85% 30.31 in 10.0 mi North 23.0 mph 31.1 mph N/A   Overcast
6:53 AM 26.1 °F 11.3 °F 23.0 °F 88% 30.35 in 10.0 mi NNW 23.0 mph 31.1 mph N/A   Overcast
7:48 AM 26.6 °F 12.4 °F 21.2 °F 80% 30.37 in 10.0 mi NNW 21.9 mph - N/A   Overcast
7:53 AM 25.0 °F 10.6 °F 21.0 °F 85% 30.38 in 10.0 mi North 20.7 mph 29.9 mph N/A   Overcast
9:53 AM 25.0 °F 11.3 °F 19.0 °F 78% 30.42 in 10.0 mi NNW 18.4 mph - N/A   Overcast
10:53 AM 27.0 °F 13.2 °F 19.0 °F 72% 30.41 in 10.0 mi North 20.7 mph - N/A   Mostly Cloudy
11:03 AM 28.0 °F 16.1 °F 19.0 °F 69% 30.40 in 10.0 mi North 16.1 mph - N/A   Scattered Clouds
11:22 AM 28.9 °F 16.9 °F 21.0 °F 72% 30.39 in 10.0 mi North 17.3 mph - N/A   Scattered Clouds
11:31 AM 27.0 °F 15.2 °F 18.0 °F 69% 30.40 in 10.0 mi North 15.0 mph - N/A   Mostly Cloudy
11:44 AM 28.9 °F 16.1 °F 19.0 °F 67% 30.39 in 10.0 mi North 19.6 mph - N/A   Partly Cloudy
11:53 AM 28.9 °F 16.5 °F 19.0 °F 67% 30.40 in 10.0 mi NNW 18.4 mph 26.5 mph N/A   Partly Cloudy
12:53 PM 30.9 °F 18.7 °F 17.1 °F 57% 30.38 in 10.0 mi NNW 19.6 mph 25.3 mph N/A   Clear
1:53 PM 32.0 °F 20.8 °F 15.1 °F 50% 30.37 in 10.0 mi North 17.3 mph 24.2 mph N/A   Clear
2:53 PM 32.0 °F 22.5 °F 12.9 °F 45% 30.37 in 10.0 mi North 12.7 mph - N/A   Clear
3:53 PM 30.0 °F 19.1 °F 12.0 °F 47% 30.38 in 10.0 mi NNE 15.0 mph - N/A   Clear
4:53 PM 28.0 °F 16.5 °F 10.9 °F 49% 30.39 in 10.0 mi North 15.0 mph - N/A   Clear
5:53 PM 26.1 °F 14.5 °F 10.9 °F 53% 30.40 in 10.0 mi North 13.8 mph 17.3 mph N/A   Clear
6:53 PM 24.1 °F 14.4 °F 12.0 °F 60% 30.43 in 10.0 mi North 9.2 mph - N/A   Clear
7:53 PM 24.1 °F 14.4 °F 10.9 °F 57% 30.44 in 10.0 mi North 9.2 mph - N/A   Clear
8:53 PM 21.9 °F 11.7 °F 10.9 °F 63% 30.45 in 10.0 mi North 9.2 mph - N/A   Clear
9:53 PM 21.0 °F 11.4 °F 10.9 °F 65% 30.45 in 10.0 mi North 8.1 mph - N/A   Clear
10:53 PM 19.9 °F 13.4 °F 12.0 °F 71% 30.44 in 10.0 mi North 4.6 mph - N/A   Clear
11:53 PM 19.0 °F 10.0 °F 12.0 °F 74% 30.43 in 10.0 mi North 6.9 mph - N/A   Clear